CSS (TIANHE)

Last updated on Thu Sep 12 2024 00:02:08 GMT+0000 (Coordinated Universal Time)

1 48274U 21035A 24255.42040077 .00033894 00000+0 35408-3 0 9997 2 48274 41.4687 277.4402 0001415 103.9147 256.1850 15.63769984192589
UTC large
Height (km)
Speed (km/s)
/
Latitude / Longitude
Inclination (degrees)
Orbital Period (minutes)
Azimuth
Elevation
Range (km)
Doppler Factor

Next 0 passes for location: London (51.5072 / 0.1276)

Sorry there are no passes over London.